This demonstration page uses our WeatherBlox Daily Observations layout. Learn more.

Left ArrowRight Arrow

44.8408, -93.29828

Hourly Observations for December 31, 2017

Temp ( °F °C ) Dew Point ( °F °C ) Humidity (%) Winds ( mph kmh ) Pressure ( in mb ) Visibility ( mi km ) Precip ( " mm )
12:53 am 00:53 Cloudy -7 -21.7 -15 -26.1 68 68 N 9 15 30.72 1040 10 16 0.00 0.00
1:53 am 01:53 Cloudy -8 -22.2 -16 -26.7 67 67 N 8 13 30.73 1041 10 16 0.00 0.00
2:53 am 02:53 Cloudy -9 -22.8 -16 -26.7 71 71 NNW 12 19 30.75 1041 10 16 0.00 0.00
3:53 am 03:53 Partly Cloudy -10 -23.3 -17 -27.2 70 70 NNW 10 17 30.76 1042 10 16 0.00 0.00
4:53 am 04:53 Clear -10 -23.3 -17 -27.2 70 70 NNW 10 17 30.76 1042 10 16 0.00 0.00
5:53 am 05:53 Clear -12 -24.4 -18 -27.8 73 73 NNW 9 15 30.77 1042 10 16 0.00 0.00
6:53 am 06:53 Clear -14 -25.6 -19 -28.3 78 78 NNW 12 19 30.79 1043 10 16 0.00 0.00
7:53 am 07:53 Sunny -15 -26.1 -20 -28.9 77 77 NW 9 15 30.81 1043 10 16 0.00 0.00
8:53 am 08:53 Sunny -15 -26.1 -21 -29.4 74 74 NNW 9 15 30.84 1044 9 14 0.00 0.00
9:53 am 09:53 Sunny -14 -25.6 -22 -30 67 67 NNW 10 17 30.85 1045 10 16 0.00 0.00
10:53 am 10:53 Sunny -12 -24.4 -21 -29.4 63 63 NNW 12 19 30.86 1045 10 16 0.00 0.00
11:53 am 11:53 Sunny -10 -23.3 -20 -28.9 60 60 NW 9 15 30.85 1045 10 16 0.00 0.00
12:53 pm 12:53 Sunny -8 -22.2 -19 -28.3 58 58 NW 8 13 30.82 1044 10 16 0.00 0.00
1:53 pm 13:53 Sunny -6 -21.1 -17 -27.2 58 58 NW 12 19 30.81 1043 10 16 0.00 0.00
2:53 pm 14:53 Sunny -5 -20.6 -17 -27.2 56 56 NW 8 13 30.80 1043 10 16 0.00 0.00
3:53 pm 15:53 Sunny -6 -21.1 -18 -27.8 55 55 WNW 9 15 30.81 1043 10 16 0.00 0.00
4:53 pm 16:53 Clear -7 -21.7 -17 -27.2 61 61 W 7 11 30.81 1043 10 16 0.00 0.00
5:53 pm 17:53 Clear -9 -22.8 -17 -27.2 67 67 W 12 19 30.81 1044 10 16 0.00 0.00
6:53 pm 18:53 Clear -10 -23.3 -17 -27.2 70 70 W 10 17 30.83 1044 9 14 0.00 0.00
7:53 pm 19:53 Clear -10 -23.3 -18 -27.8 67 67 W 12 19 30.83 1044 10 16 0.00 0.00
8:53 pm 20:53 Clear -11 -23.9 -18 -27.8 70 70 W 9 15 30.83 1044 10 16 0.00 0.00
9:53 pm 21:53 Clear -11 -23.9 -17 -27.2 74 74 WNW 9 15 30.83 1044 10 16 0.00 0.00
10:53 pm 22:53 Clear -11 -23.9 -17 -27.2 74 74 WNW 9 15 30.84 1044 10 16 0.00 0.00
11:53 pm 23:53 Clear -11 -23.9 -17 -27.2 74 74 WNW 10 17 30.83 1044 10 16 0.00 0.00

Powered by AerisWeather